Flag for Germany Weather past 2 weeks in Grevenbroich, North Rhine-Westphalia, Germany

37 °F

Passing clouds.

Feels Like: 33 °F
Forecast: 34 / 43 °F
Wind: 6 mph from Northwest

Location: Duesseldorf

Current Time: Nov 26, 2015 at 7:02:21 AM

Latest Report: Nov 26, 2015 at 5:50 AM

Visibility: N/A

Pressure: 29.92 "Hg

Humidity: 93%

Dew point: 36 °F

Location of GrevenbroichLocation

Historic Weather in Grevenbroich — Graph


Grevenbroich temperature yesterday

Maximum temperature yesterday: 46 °F (at 2:20 PM)
Minimum temperature yesterday: 36 °F (at 12:20 AM)
Average temperature yesterday: 41 °F

Past Weeks' High & Low Weather Summary

High61 °F (Nov 15, 11:50 AM)100% (Nov 14, 10:50 PM)30.30 "Hg (Nov 14, 10:50 PM)
Low32 °F (Nov 22, 7:20 AM)59% (Nov 18, 3:20 AM)29.39 "Hg (Nov 21, 7:20 AM)
Average48 °F81%29.93 "Hg
* Reported Nov 11 5:20 AM — Nov 26 5:20 AM, Grevenbroich, Weather by CustomWeather, © 2015

Note: Actual official high and low records may vary slightly from our data, if they occured in-between our weather recording intervals... More about our weather records


Grevenbroich weather history for previous 24 hours

Time TempWeatherWind HumidityBarometerVisibility
5:20 AM
Thu, Nov 26
36 °FFog.6 mph100%29.89 "HgN/A
4:50 AM36 °FFog.3 mph100%29.89 "HgN/A
4:20 AM36 °FFog.No wind100%29.89 "HgN/A
3:50 AM36 °FPassing clouds.No wind100%29.86 "HgN/A
3:20 AM37 °FPassing clouds.3 mph100%29.86 "HgN/A
2:50 AM37 °FPassing clouds.5 mph100%29.86 "HgN/A
2:20 AM39 °FPassing clouds.6 mph93%29.83 "HgN/A
1:20 AM39 °FPassing clouds.6 mph93%29.83 "HgN/A
12:50 AM39 °FPassing clouds.6 mph93%29.83 "HgN/A
12:20 AM41 °FPassing clouds.5 mph87%29.80 "HgN/A
11:50 PM
Wed, Nov 25
41 °FPassing clouds.3 mph93%29.80 "HgN/A
11:20 PM41 °FPassing clouds.6 mph93%29.80 "HgN/A
10:50 PM41 °FPartly cloudy.6 mph93%29.80 "HgN/A
10:20 PM41 °FPartly cloudy.6 mph93%29.80 "HgN/A
9:50 PM41 °FPartly cloudy.6 mph93%29.77 "HgN/A
9:20 PM41 °FSprinkles. Passing clouds.7 mph93%29.77 "HgN/A
8:50 PM41 °FSprinkles. Passing clouds.5 mph93%29.77 "HgN/A
8:20 PM41 °FSprinkles. Passing clouds.8 mph93%29.77 "HgN/A
7:50 PM41 °FPassing clouds.6 mph93%29.74 "HgN/A
7:20 PM39 °FFog.5 mph100%29.74 "HgN/A
6:50 PM39 °FFog.5 mph93%29.74 "HgN/A
6:20 PM37 °FFog.5 mph100%29.71 "HgN/A
5:50 PM41 °FPassing clouds.5 mph93%29.71 "HgN/A
5:20 PM41 °FPassing clouds.3 mph93%29.71 "HgN/A
4:50 PM43 °FPartly cloudy.7 mph87%29.68 "HgN/A
4:20 PM43 °FScattered clouds.7 mph87%29.68 "HgN/A
3:50 PM45 °FPartly sunny.7 mph81%29.68 "HgN/A
3:20 PM45 °FBroken clouds.8 mph87%29.68 "HgN/A
2:50 PM45 °FPartly sunny.10 mph81%29.68 "HgN/A
2:20 PM46 °FPartly sunny.10 mph82%29.65 "HgN/A
1:50 PM45 °FBroken clouds.10 mph87%29.68 "HgN/A
1:20 PM45 °FBroken clouds.9 mph87%29.68 "HgN/A
12:50 PM43 °FLight rain. Partly sunny.10 mph93%29.68 "HgN/A
12:20 PM43 °FLight rain. Broken clouds.14 mph87%29.68 "HgN/A
11:50 AM45 °FSprinkles. Partly sunny.12 mph87%29.68 "HgN/A
11:20 AM45 °FPartly sunny.12 mph87%29.68 "HgN/A
10:50 AM45 °FBroken clouds.12 mph87%29.68 "HgN/A
10:20 AM45 °FScattered showers. Broken clouds.7 mph81%29.68 "HgN/A
9:50 AM45 °FBroken clouds.14 mph87%29.68 "HgN/A
9:20 AM43 °FPartly sunny.12 mph93%29.68 "Hg6 mi
8:50 AM43 °FBroken clouds.9 mph93%29.68 "Hg5 mi
8:20 AM43 °FPartly sunny.9 mph93%29.68 "Hg4 mi
7:50 AM43 °FPassing clouds.7 mph93%29.68 "Hg4 mi
7:20 AM43 °FLow clouds.6 mph93%29.68 "Hg4 mi
Weather by CustomWeather, © 2015

See weather overviewHow to use our weather pages